Fairfield, IL

4:52 AM CST on December 09, 2019 (GMT -0600)
Fairfield Municipal

Weather History for KFWC - October, 2019

Change the Weather History Date:

Saturday, October 19, 2019

  Actual Average (WUND) Record (WUND)
Temperature  
Mean Temperature 54 °F -  
Max Temperature 71 °F - - (-1)
Min Temperature 38 °F - - (-1)
Degree Days  
Heating Degree Days 10    
Growing Degree Days 4 (Base 50)    
Moisture  
Dew Point 44 °F    
Average Humidity 73    
Maximum Humidity 100    
Minimum Humidity 36    
Precipitation  
Precipitation 0.00 in - - ()
Sea Level Pressure  
Sea Level Pressure 29.83 in    
Wind  
Wind Speed 1 mph ()    
Max Wind Speed 7 mph    
Max Gust Speed -    
Visibility 10.0 miles    
Events      
Averages and records for this station are not official NWS values.
T = Trace of Precipitation, MM = Missing Value Source: Averaged Metar Reports

Daily Weather History Graph

Daily Weather History Graph

Search for Another Location

Airport or City:

Astronomy

Oct. 19, 2019 Rise Set
Actual Time 7:06 AM CDT 6:10 PM CDT
Civil Twilight 6:39 AM CDT 6:37 PM CDT
Nautical Twilight 6:08 AM CDT 7:07 PM CDT
Astronomical Twilight 5:38 AM CDT 7:38 PM CDT
Moon 10:22 PM CDT (10/19) 12:35 PM CDT (10/19)
Length of Visible Light 11h 57m
Length of Day
11h 04m
Waning Gibbous, 69% of the Moon is Illuminated
Oct 19
Waning Gibbous
Oct 21
Last Quarter
Oct 27
New
Nov 4
First Quarter
Nov 12
Full

Hourly Weather History & Observations

Time (CDT) Temp. Dew Point Humidity Pressure Visibility Wind Dir Wind Speed Gust Speed Precip Events Conditions
12:15 AM 47.3 °F 40.8 °F 78% 29.88 in 10.0 mi Calm Calm - N/A   Clear
12:35 AM 45.0 °F 40.3 °F 84% 29.88 in 10.0 mi Calm Calm - N/A   Clear
12:55 AM 44.6 °F 40.5 °F 85% 29.88 in 10.0 mi Calm Calm - N/A   Clear
1:15 AM 44.8 °F 40.3 °F 84% 29.89 in 10.0 mi Calm Calm - N/A   Clear
1:35 AM 43.0 °F 41.5 °F 95% 29.89 in 10.0 mi Calm Calm - N/A   Clear
1:55 AM 43.0 °F 40.6 °F 91% 29.89 in 10.0 mi Calm Calm - N/A   Clear
2:15 AM 41.7 °F 40.3 °F 95% 29.89 in 10.0 mi Calm Calm - N/A   Clear
2:35 AM 41.4 °F 41.2 °F 99% 29.89 in 10.0 mi Calm Calm - N/A   Clear
2:55 AM 42.4 °F 41.5 °F 97% 29.89 in 10.0 mi Calm Calm - N/A   Clear
3:15 AM 41.0 °F 41.0 °F 100% 29.89 in 10.0 mi Calm Calm - N/A   Clear
3:35 AM 40.5 °F 40.3 °F 99% 29.89 in 10.0 mi Calm Calm - N/A   Clear
3:55 AM 39.0 °F 39.0 °F 100% 29.89 in 10.0 mi Calm Calm - N/A   Clear
4:15 AM 39.4 °F 39.4 °F 100% 29.88 in 10.0 mi Calm Calm - N/A   Clear
4:35 AM 40.1 °F 40.1 °F 100% 29.88 in 10.0 mi Calm Calm - N/A   Clear
4:55 AM 41.4 °F 41.4 °F 100% 29.88 in 10.0 mi Calm Calm - N/A   Clear
5:15 AM 41.0 °F 41.0 °F 100% 29.88 in 10.0 mi Calm Calm - N/A   Clear
5:35 AM 39.6 °F 39.6 °F 100% 29.88 in 10.0 mi Calm Calm - N/A   Clear
5:55 AM 38.8 °F 38.8 °F 100% 29.88 in 10.0 mi Calm Calm - N/A   Clear
6:15 AM 39.6 °F 39.6 °F 100% 29.89 in 10.0 mi Calm Calm - N/A   Clear
6:35 AM 38.7 °F 38.7 °F 100% 29.88 in 10.0 mi Calm Calm - N/A   Clear
6:55 AM 39.9 °F 39.9 °F 100% 29.88 in 10.0 mi Calm Calm - N/A   Clear
7:15 AM 40.5 °F 40.5 °F 100% 29.88 in 10.0 mi Calm Calm - N/A   Clear
7:35 AM 41.7 °F 41.7 °F 100% 29.87 in 10.0 mi Calm Calm - N/A   Clear
7:55 AM 45.5 °F 43.0 °F 91% 29.88 in 10.0 mi Calm Calm - N/A   Clear
8:15 AM 47.7 °F 43.7 °F 86% 29.88 in 10.0 mi Calm Calm - N/A   Clear
8:35 AM 50.0 °F 44.4 °F 81% 29.88 in 10.0 mi Calm Calm - N/A   Clear
8:55 AM 52.2 °F 44.6 °F 75% 29.89 in 10.0 mi Calm Calm - N/A   Clear
9:15 AM 54.5 °F 45.0 °F 70% 29.89 in 10.0 mi Calm Calm - N/A   Clear
9:35 AM 56.5 °F 44.6 °F 64% 29.89 in 10.0 mi South 4.6 mph - N/A   Clear
9:55 AM 57.9 °F 45.1 °F 62% 29.89 in 10.0 mi SSE 4.6 mph - N/A   Clear
10:15 AM 59.4 °F 45.7 °F 61% 29.88 in 10.0 mi South 4.6 mph - N/A   Clear
10:35 AM 60.4 °F 46.0 °F 59% 29.88 in 10.0 mi South 5.8 mph - N/A   Clear
10:55 AM 61.7 °F 46.0 °F 56% 29.88 in 10.0 mi South 6.9 mph - N/A   Clear
11:15 AM 63.1 °F 46.4 °F 54% 29.87 in 10.0 mi South 3.5 mph - N/A   Clear
11:35 AM 64.4 °F 46.6 °F 52% 29.85 in 10.0 mi SSE 4.6 mph - N/A   Scattered Clouds
11:55 AM 65.8 °F 46.2 °F 49% 29.85 in 10.0 mi SSW 3.5 mph - N/A   Clear
12:15 PM 66.2 °F 46.4 °F 49% 29.84 in 10.0 mi South 3.5 mph - N/A   Clear
12:35 PM 66.4 °F 45.9 °F 48% 29.83 in 10.0 mi SSW 4.6 mph - N/A   Clear
12:55 PM 68.0 °F 46.2 °F 46% 29.82 in 10.0 mi SSE 3.5 mph - N/A   Clear
1:15 PM 67.8 °F 45.0 °F 44% 29.81 in 10.0 mi SE 4.6 mph - N/A   Clear
1:35 PM 68.7 °F 45.7 °F 44% 29.79 in 10.0 mi SSE 4.6 mph - N/A   Clear
1:55 PM 69.1 °F 45.5 °F 43% 29.78 in 10.0 mi SSE 4.6 mph - N/A   Clear
2:15 PM 70.0 °F 44.6 °F 40% 29.77 in 10.0 mi SSE 4.6 mph - N/A   Clear
2:55 PM 70.2 °F 43.2 °F 38% 29.76 in 10.0 mi South 4.6 mph - N/A   Clear
3:15 PM 71.1 °F 43.5 °F 37% 29.76 in 10.0 mi SE 5.8 mph - N/A   Clear
3:35 PM 71.2 °F 43.5 °F 37% 29.75 in 10.0 mi South 5.8 mph - N/A   Clear
3:55 PM 70.9 °F 43.9 °F 38% 29.75 in 10.0 mi SSE 3.5 mph - N/A   Clear
4:15 PM 69.8 °F 41.9 °F 36% 29.74 in 10.0 mi SSE 4.6 mph - N/A   Clear
4:35 PM 70.0 °F 42.6 °F 37% 29.74 in 10.0 mi SSE 3.5 mph - N/A   Clear
4:55 PM 71.1 °F 43.2 °F 37% 29.74 in 10.0 mi SSE 4.6 mph - N/A   Clear
5:15 PM 69.4 °F 43.2 °F 39% 29.75 in 10.0 mi SSW 4.6 mph - N/A   Clear
5:35 PM 67.1 °F 42.3 °F 40% 29.76 in 10.0 mi SSW 3.5 mph - N/A   Clear
5:55 PM 66.4 °F 41.5 °F 40% 29.76 in 10.0 mi Calm Calm - N/A   Clear
6:15 PM 63.9 °F 42.1 °F 45% 29.76 in 10.0 mi Calm Calm - N/A   Clear
6:35 PM 57.9 °F 44.6 °F 61% 29.76 in 10.0 mi Calm Calm - N/A   Clear
6:55 PM 57.7 °F 45.0 °F 62% 29.76 in 10.0 mi Calm Calm - N/A   Clear
7:15 PM 54.5 °F 45.5 °F 72% 29.76 in 10.0 mi Calm Calm - N/A   Scattered Clouds
7:35 PM 52.3 °F 45.5 °F 78% 29.76 in 10.0 mi Calm Calm - N/A   Scattered Clouds
7:55 PM 53.2 °F 47.8 °F 82% 29.76 in 10.0 mi Calm Calm - N/A   Scattered Clouds
8:15 PM 53.6 °F 48.2 °F 82% 29.77 in 10.0 mi Calm Calm - N/A   Scattered Clouds
8:35 PM 54.7 °F 48.6 °F 80% 29.78 in 10.0 mi Calm Calm - N/A   Mostly Cloudy
8:55 PM 55.4 °F 47.5 °F 75% 29.79 in 10.0 mi Calm Calm - N/A   Mostly Cloudy
9:15 PM 53.2 °F 49.1 °F 86% 29.79 in 10.0 mi Calm Calm - N/A   Scattered Clouds
9:35 PM 53.1 °F 49.1 °F 86% 29.79 in 10.0 mi Calm Calm - N/A   Clear
9:55 PM 52.2 °F 47.8 °F 85% 29.79 in 10.0 mi Calm Calm - N/A   Scattered Clouds
10:15 PM 51.6 °F 46.6 °F 83% 29.79 in 10.0 mi Calm Calm - N/A   Scattered Clouds
10:35 PM 51.4 °F 47.5 °F 86% 29.79 in 10.0 mi Calm Calm - N/A   Scattered Clouds
10:55 PM 49.1 °F 47.5 °F 94% 29.79 in 10.0 mi Calm Calm - N/A   Scattered Clouds
11:15 PM 51.4 °F 48.6 °F 90% 29.79 in 10.0 mi Calm Calm - N/A   Scattered Clouds
11:35 PM 51.6 °F 49.5 °F 92% 29.79 in 10.0 mi Calm Calm - N/A   Mostly Cloudy
11:55 PM 52.0 °F 50.4 °F 94% 29.79 in 10.0 mi Calm Calm - N/A   Overcast